DW8305 Weather Reports


Display with metric or nautical units.
time (UTC)temp
F
wind
direction
speed
MPH
gust
MPH
rain 1hr
in
rain 24hr
in
rain mn
in
humidity
%
barometer
mb
20240305014116 46 0.0 0.0 0.00 0.02 0.01 99 1014.6
20240305013117 46 0.0 0.0 0.00 0.02 0.01 99 1014.6
20240305012116 46 0.0 0.0 0.00 0.02 0.01 99 1014.6
20240305011116 46 0.0 0.0 0.00 0.02 0.01 99 1014.6
20240305010116 46 0.0 0.0 0.00 0.02 0.01 99 1014.5
20240305005137 46 0.0 0.0 0.00 0.02 0.01 99 1014.6
20240305004117 46 0.0 0.0 0.00 0.02 0.01 99 1014.5
20240305003116 46 0.0 0.0 0.00 0.02 0.01 99 1014.5
20240305002117 46 0.0 0.0 0.01 0.02 0.01 99 1014.5
20240305001117 46 0.0 0.0 0.01 0.02 0.01 99 1014.5
20240305000156 46 0.0 0.0 0.01 0.02 0.01 99 1014.5
20240304235137 46 0.0 0.0 0.01 0.02 0.01 99 1014.5
20240304234117 46 0.0 0.0 0.01 0.02 0.01 99 1014.5
20240304233116 46 0.0 0.0 0.01 0.02 0.01 99 1014.4
20240304232116 46 0.0 0.0 0.01 0.02 0.00 99 1014.2
20240304231116 46 0.0 0.0 0.02 0.02 0.00 99 1014.1
20240304230116 46 0.0 0.0 0.02 0.02 0.00 99 1014.1
20240304225117 46 0.0 0.0 0.02 0.02 0.02 99 1014.0
20240304224117 46 270 1.0 2.0 0.02 0.02 0.02 98 1014.1
20240304223117 46 0.0 1.0 0.02 0.02 0.02 98 1014.1
20240304222117 46 293 1.0 1.0 0.01 0.01 0.01 97 1014.0
20240304221117 46 0.0 0.0 0.00 0.00 0.00 97 1014.1
20240304220137 46 0.0 1.0 0.00 0.00 0.00 96 1014.0
20240304215157 46 0.0 1.0 0.00 0.00 0.00 96 1013.9
20240304214117 46 270 1.0 3.0 0.00 0.00 0.00 96 1014.0
20240304213117 46 293 1.0 3.0 0.00 0.00 0.00 96 1013.9
20240304212157 46 0.0 1.0 0.00 0.00 0.00 96 1014.0
20240304211117 46 270 1.0 2.0 0.00 0.00 0.00 96 1013.9
20240304210117 46 0.0 0.0 0.00 0.00 0.00 96 1013.9
20240304205117 46 0.0 1.0 0.00 0.00 0.00 96 1013.9
20240304204117 46 270 2.0 3.0 0.00 0.00 0.00 96 1013.8
20240304203137 46 0.0 0.0 0.00 0.00 0.00 96 1013.9
20240304202117 46 0.0 1.0 0.00 0.00 0.00 96 1013.8
20240304201137 46 270 1.0 2.0 0.00 0.00 0.00 96 1013.8
20240304200117 46 270 1.0 1.0 0.00 0.00 0.00 96 1013.7
20240304195157 46 270 1.0 1.0 0.00 0.00 0.00 96 1013.7
20240304194117 46 0.0 0.0 0.00 0.00 0.00 96 1013.7
20240304193117 45 0.0 1.0 0.00 0.00 0.00 96 1013.7
20240304192117 45 0.0 0.0 0.00 0.00 0.00 96 1013.6
20240304191117 45 0.0 1.0 0.00 0.00 0.00 95 1013.6
20240304190117 46 0.0 0.0 0.00 0.00 0.00 95 1013.6
20240304185157 46 270 2.0 2.0 0.00 0.00 0.00 95 1013.4
20240304184117 46 270 3.0 6.0 0.00 0.00 0.00 95 1013.3
20240304183117 46 270 3.0 4.0 0.00 0.00 0.00 94 1013.3
20240304182157 47 270 1.0 2.0 0.00 0.00 0.00 94 1013.3
20240304181117 47 270 2.0 3.0 0.00 0.00 0.00 94 1013.2
20240304180137 47 270 1.0 2.0 0.00 0.00 0.00 94 1013.3
20240304175222 47 0.0 2.0 0.00 0.00 0.00 94 1013.3
20240304174117 47 270 1.0 2.0 0.00 0.00 0.00 93 1013.2
20240304173137 47 270 2.0 2.0 0.00 0.00 0.00 93 1013.0
20240304172117 47 270 1.0 2.0 0.00 0.00 0.00 93 1012.9
20240304171117 47 248 1.0 3.0 0.00 0.00 0.00 93 1012.8
20240304170117 47 270 2.0 3.0 0.00 0.00 0.00 93 1012.6
20240304165117 48 270 2.0 4.0 0.00 0.00 0.00 93 1012.8
20240304164117 48 270 2.0 3.0 0.00 0.00 0.00 92 1012.6
20240304163137 48 248 3.0 3.0 0.00 0.00 0.00 92 1012.6
20240304162117 48 248 2.0 3.0 0.00 0.00 0.00 92 1012.5
20240304161117 48 270 1.0 2.0 0.00 0.00 0.00 92 1012.5
20240304160117 48 225 2.0 3.0 0.00 0.00 0.00 92 1012.5
20240304155117 49 248 1.0 4.0 0.00 0.00 0.00 92 1012.4
20240304154117 49 270 2.0 3.0 0.00 0.00 0.00 92 1012.4
20240304153117 49 270 3.0 4.0 0.00 0.00 0.00 91 1012.4
20240304152117 49 270 2.0 2.0 0.00 0.00 0.00 91 1012.4
20240304151117 49 270 1.0 2.0 0.00 0.00 0.00 91 1012.3
20240304150117 49 248 2.0 2.0 0.00 0.00 0.00 91 1012.3
20240304145117 49 293 2.0 3.0 0.00 0.00 0.00 91 1012.3
20240304144117 49 248 2.0 4.0 0.00 0.00 0.00 91 1012.2
20240304143116 49 0.0 2.0 0.00 0.00 0.00 91 1012.2
20240304142117 49 270 3.0 3.0 0.00 0.00 0.00 91 1012.1
20240304141117 50 270 2.0 3.0 0.00 0.00 0.00 91 1012.2
20240304140117 50 270 4.0 6.0 0.00 0.00 0.00 90 1012.2
20240304135117 50 270 3.0 4.0 0.00 0.00 0.00 91 1012.1
20240304134137 50 270 6.0 7.0 0.00 0.00 0.00 90 1012.1
20240304133117 50 270 4.0 7.0 0.00 0.00 0.00 91 1012.0
20240304132117 50 293 5.0 7.0 0.00 0.00 0.00 91 1011.9
20240304131117 51 293 3.0 5.0 0.00 0.00 0.00 90 1011.8
20240304130137 51 270 4.0 6.0 0.00 0.00 0.00 90 1011.8
20240304125117 51 270 5.0 7.0 0.00 0.00 0.00 89 1011.8
20240304124117 51 270 2.0 4.0 0.00 0.01 0.00 89 1011.7
20240304123117 51 248 2.0 4.0 0.00 0.01 0.00 90 1011.7
20240304122117 51 248 4.0 5.0 0.00 0.01 0.00 90 1011.6
20240304121117 51 270 4.0 6.0 0.00 0.01 0.00 90 1011.6
20240304120117 51 270 3.0 4.0 0.00 0.01 0.00 90 1011.6
20240304115117 51 248 2.0 4.0 0.00 0.01 0.00 91 1011.5
20240304114117 51 225 2.0 4.0 0.00 0.01 0.00 90 1011.5
20240304113137 51 248 3.0 5.0 0.00 0.01 0.00 91 1011.4
20240304112117 51 315 2.0 3.0 0.00 0.01 0.00 91 1011.5
20240304111117 51 293 2.0 3.0 0.00 0.01 0.00 92 1011.5
20240304110117 51 270 3.0 4.0 0.00 0.01 0.00 93 1011.5
20240304105116 51 270 1.0 2.0 0.00 0.01 0.00 97 1011.5
20240304104117 49 270 1.0 2.0 0.00 0.01 0.00 99 1011.5
20240304103137 48 270 3.0 3.0 0.00 0.01 0.00 99 1011.5
20240304102117 48 270 1.0 1.0 0.00 0.01 0.00 99 1011.4
20240304101157 48 248 2.0 3.0 0.00 0.01 0.00 99 1011.3
20240304100117 47 248 2.0 3.0 0.00 0.01 0.00 99 1011.2
20240304095117 47 248 2.0 2.0 0.00 0.01 0.00 99 1011.1
20240304094117 46 270 1.0 2.0 0.00 0.01 0.00 99 1011.1
20240304093116 46 293 2.0 3.0 0.00 0.01 0.00 99 1011.1
20240304092137 46 0.0 1.0 0.00 0.01 0.00 99 1011.0
20240304091117 45 0.0 1.0 0.00 0.01 0.00 99 1011.0
20240304090117 45 0.0 0.0 0.00 0.01 0.00 99 1011.0
20240304085116 45 68 1.0 1.0 0.00 0.01 0.00 99 1011.0
20240304084117 44 0.0 0.0 0.00 0.01 0.00 99 1010.9
20240304083137 43 0.0 0.0 0.00 0.01 0.00 99 1010.7
20240304082117 42 0.0 0.0 0.00 0.01 0.00 99 1010.7
20240304081117 41 0.0 0.0 0.00 0.01 0.00 99 1010.7
20240304080117 40 0.0 0.0 0.00 0.01 0.00 99 1010.6
20240304075117 39 0.0 0.0 0.00 0.01 0.00 99 1010.5
20240304074137 38 0.0 0.0 0.00 0.01 0.00 99 1010.5
20240304073117 38 0.0 0.0 0.00 0.01 0.00 99 1010.5
20240304072137 37 0.0 0.0 0.00 0.01 0.00 99 1010.3
20240304071117 36 0.0 0.0 0.00 0.01 0.00 99 1010.3
20240304070117 35 0.0 0.0 0.00 0.01 0.00 99 1010.2
20240304065137 35 0.0 0.0 0.00 0.01 0.00 98 1010.2
20240304064117 35 0.0 0.0 0.00 0.01 0.00 98 1010.1
20240304063136 35 0.0 0.0 0.00 0.01 0.00 98 1009.8
20240304062116 35 0.0 0.0 0.00 0.01 0.00 98 1009.8
20240304061116 35 0.0 0.0 0.00 0.01 0.00 98 1009.7
20240304060137 35 0.0 0.0 0.00 0.01 0.00 98 1009.6
20240304055117 35 0.0 0.0 0.00 0.01 0.00 98 1009.5
20240304054116 35 0.0 0.0 0.00 0.01 0.00 98 1009.4
20240304053116 36 0.0 0.0 0.00 0.01 0.00 98 1009.3
20240304052116 36 0.0 0.0 0.00 0.01 0.00 98 1009.2
20240304051116 36 0.0 0.0 0.00 0.01 0.00 98 1009.1
20240304050116 37 0.0 1.0 0.00 0.01 0.00 98 1009.1
20240304045116 37 0.0 0.0 0.00 0.01 0.00 98 1009.0
20240304044116 37 0.0 0.0 0.00 0.01 0.00 98 1008.8
20240304043137 37 68 1.0 1.0 0.00 0.01 0.00 98 1008.8
20240304042116 37 0.0 0.0 0.00 0.01 0.00 98 1008.6
20240304041117 38 0.0 0.0 0.00 0.01 0.00 98 1008.6
20240304040157 39 0.0 0.0 0.00 0.01 0.00 99 1008.4
20240304035116 38 0.0 1.0 0.00 0.01 0.00 98 1008.4
20240304034116 38 0.0 0.0 0.00 0.01 0.00 98 1008.3
20240304033117 38 68 1.0 1.0 0.00 0.01 0.00 98 1008.1
20240304032116 38 0.0 0.0 0.00 0.01 0.00 98 1008.1
20240304031116 38 0.0 0.0 0.00 0.01 0.00 98 1008.0
20240304030116 39 0.0 0.0 0.00 0.01 0.00 98 1007.9
20240304025116 39 0.0 0.0 0.00 0.01 0.00 98 1007.8
20240304024117 39 0.0 1.0 0.00 0.01 0.00 98 1007.7
20240304023116 39 0.0 0.0 0.00 0.01 0.00 98 1007.5
20240304022117 39 0.0 0.0 0.00 0.01 0.00 98 1007.4
20240304021116 40 0.0 0.0 0.00 0.01 0.00 98 1007.4
20240304020117 39 0.0 0.0 0.00 0.01 0.00 98 1007.4
20240304015117 39 0.0 0.0 0.00 0.01 0.00 97 1007.4